Yunyao-1 45

operational
NORAD ID: 63346 Int'l Des: 2025-059 Owner: YYAO Country: CN
LEOCIRCULARRETROGRADESSO

关于 Yunyao-1 45

正在加载描述...

实时位置

正在加载3D地球...

即将过境

高度历史

Altitude vs Time

uPlot chart will show altitude changes over time

两行轨道根数

1 63346U 25059C 25340.92914448 .00006533 00000-0 41122-3 0 9998
2 63346 97.6025 158.6793 0017802 95.6786 264.6473 15.09398870 39285
Epoch: Dec 6, 2025 • Age: 10 hours

当前状态

高度 538.9 km
速度 7.61 km/s
星下点 78.07°N, 177.43°E
发射日期 Mar 21, 2025
运行时间 0.7 years
类型 other

技术详情

分类 Payload
质量 50.00 kg
干质量 50.00 kg
总质量 50.00 kg
长度 2.00 m
直径 1.50 m
跨度 5.00 m
形状 Box + pan
制造商 CGSTL
平台类型 YY-1
阶段状态 In Orbit
所有者/国家 YYAO/CN

大型星座

Loading constellations...